Date,TemperatureHighF,TemperatureAvgF,TemperatureLowF,DewpointHighF,DewpointAvgF,DewpointLowF,HumidityHigh,HumidityAvg,HumidityLow,PressureMaxIn,PressureMinIn,WindSpeedMaxMPH,WindSpeedAvgMPH,GustSpeedMaxMPH,PrecipitationSumIn
2012-1-1,51.3,42.7,32.8,43.0,37.5,32.0,95,83,61,30.09,29.66,10,2,17,0.07
2012-1-2,44.4,34.5,26.3,37.0,21.2,16.0,80,59,44,29.81,29.68,15,6,25,0.00
2012-1-3,27.0,21.0,11.0,21.0,5.7,-4.0,83,53,35,30.19,29.80,16,4,26,0.00
2012-1-4,23.9,16.3,7.7,15.0,4.6,-2.0,78,60,49,30.25,29.97,8,2,17,0.00
2012-1-5,37.4,28.7,18.3,24.0,18.4,11.0,79,66,50,29.97,29.87,9,2,16,0.00
2012-1-6,51.1,37.7,25.1,30.0,25.8,21.0,86,64,42,29.93,29.73,11,2,16,0.00
2012-1-7,58.6,42.3,27.6,39.0,31.3,25.0,91,67,44,29.99,29.71,14,2,21,0.00
2012-1-8,43.0,35.8,27.9,28.0,23.5,18.0,75,62,48,30.32,30.00,10,2,13,0.00
2012-1-9,39.6,30.8,24.3,21.0,18.2,12.0,84,62,33,30.32,29.99,6,1,8,0.00
2012-1-10,44.1,35.2,28.0,30.0,25.8,19.0,89,70,54,30.00,29.88,10,2,15,0.00
2012-1-11,45.4,36.2,22.6,36.0,27.8,21.0,92,73,50,30.09,29.76,8,2,15,0.26
2012-1-12,44.8,40.5,37.9,42.0,38.6,36.0,96,93,89,29.75,29.43,14,2,23,0.70
2012-1-13,45.8,33.0,25.2,44.0,25.7,12.0,96,75,53,29.81,29.21,26,9,32,0.07
2012-1-14,31.3,26.9,23.7,21.0,16.5,14.0,85,66,49,30.09,29.82,10,4,18,0.00
2012-1-15,23.9,17.2,11.1,14.0,2.6,-2.0,70,54,34,30.59,30.09,9,3,17,0.00
2012-1-16,32.8,21.7,7.9,27.0,10.2,3.0,86,64,35,30.59,30.13,9,2,22,0.00
2012-1-17,42.4,36.9,32.2,40.0,34.6,27.0,96,91,80,30.12,29.53,7,1,12,0.21
2012-1-18,43.4,32.6,20.1,40.0,17.6,8.0,96,55,38,30.17,29.57,17,5,23,0.01
2012-1-19,31.7,23.4,10.3,21.0,13.5,7.0,88,68,53,30.24,29.93,11,2,14,0.00
2012-1-20,31.6,25.9,19.7,23.0,9.6,3.0,79,52,33,30.27,29.93,8,2,16,0.00
2012-1-21,25.3,21.3,16.4,21.0,16.2,9.0,88,81,52,30.34,30.01,5,1,10,0.00
2012-1-22,29.3,20.9,9.1,25.0,15.1,6.0,88,78,61,30.53,30.35,5,1,7,0.12
2012-1-23,47.6,39.7,26.7,46.0,38.0,24.0,96,93,88,30.39,29.87,10,2,13,0.54
2012-1-24,49.8,40.9,37.1,42.0,35.8,31.0,96,83,56,30.14,29.88,9,4,14,0.00
2012-1-25,42.7,37.3,32.8,31.0,26.3,25.0,80,65,53,30.31,30.13,8,2,16,0.00
2012-1-26,36.5,34.2,32.1,35.0,29.9,26.0,95,84,71,30.22,29.80,5,1,9,0.26
2012-1-27,52.5,41.9,34.4,51.0,37.5,29.0,97,85,63,29.88,29.36,17,4,24,0.43
2012-1-28,45.2,39.4,33.0,30.0,25.7,15.0,78,59,41,30.04,29.88,11,3,21,0.00
2012-1-29,41.4,35.2,27.2,22.0,15.0,11.0,59,44,36,30.18,30.00,13,5,22,0.00
2012-1-30,37.9,33.0,29.1,26.0,15.9,11.0,77,51,36,30.29,30.02,15,4,23,0.00
2012-1-31,56.6,42.3,29.9,31.0,24.3,14.0,67,50,36,30.21,30.00,10,2,14,0.00
2012-2-1,60.8,48.7,40.6,45.0,36.8,30.0,81,64,48,30.01,29.88,13,3,24,0.05
2012-2-2,44.5,38.6,32.8,35.0,28.1,20.0,83,67,55,30.28,29.98,19,3,28,0.00
2012-2-3,43.7,34.9,28.0,24.0,20.3,17.0,77,57,35,30.46,30.28,11,3,15,0.00
2012-2-4,42.9,35.2,27.6,27.0,23.6,21.0,82,64,46,30.33,30.10,7,1,8,0.00
2012-2-5,41.5,32.8,27.0,24.0,19.4,16.0,76,59,40,30.18,30.09,8,2,13,0.00
2012-2-6,50.3,36.3,24.1,30.0,24.0,18.0,81,63,40,30.17,29.98,13,3,19,0.00
2012-2-7,47.3,38.2,30.3,29.0,25.4,23.0,77,61,44,30.25,29.98,12,2,18,0.00
2012-2-8,35.6,30.9,28.1,28.0,22.1,17.0,93,71,48,30.30,30.11,4,1,10,0.00
2012-2-9,43.1,32.2,23.4,28.0,23.0,20.0,94,71,41,30.17,30.07,13,2,16,0.04
2012-2-10,40.2,33.0,25.6,28.0,22.5,20.0,83,67,48,30.14,29.91,11,2,15,0.00
2012-2-11,37.8,32.7,22.1,31.0,27.1,9.0,94,81,57,29.91,29.57,11,1,25,0.06
2012-2-12,29.1,23.3,17.7,20.0,11.4,2.0,83,61,45,29.98,29.77,17,5,25,0.00
2012-2-13,42.0,32.0,24.3,20.0,16.6,14.0,71,55,37,30.05,29.96,19,6,22,0.00
2012-2-14,46.0,37.3,30.5,35.0,21.1,14.0,93,54,32,30.10,29.96,5,1,14,0.02
2012-2-15,42.7,35.7,27.4,38.0,33.0,26.0,95,90,70,30.28,30.04,5,1,9,0.03
2012-2-16,38.9,32.7,25.0,38.0,31.2,23.0,95,94,92,30.29,30.00,3,1,9,0.11
2012-2-17,49.1,39.9,30.2,40.0,30.6,21.0,96,73,34,30.02,29.95,10,2,16,0.01
2012-2-18,47.8,36.7,27.0,35.0,24.0,19.0,90,62,38,30.08,29.85,10,3,23,0.03
2012-2-19,43.6,36.4,31.2,27.0,22.2,20.0,76,58,40,30.08,29.94,7,2,12,0.00
2012-2-20,44.7,34.0,25.7,20.0,15.8,9.0,66,50,27,30.34,29.99,13,2,17,0.00
2012-2-21,46.9,33.5,19.5,32.0,22.2,14.0,86,65,41,30.35,29.85,13,2,20,0.00
2012-2-22,55.3,46.1,33.9,35.0,31.2,24.0,88,60,32,29.84,29.43,14,3,21,0.00
2012-2-23,55.8,47.4,40.8,38.0,31.2,22.0,81,56,27,29.73,29.36,14,3,22,0.00
2012-2-24,42.3,38.2,34.6,39.0,34.6,27.0,95,87,60,29.71,29.37,13,3,28,0.36
2012-2-25,42.2,36.8,30.8,28.0,22.0,10.0,66,56,41,30.05,29.45,23,8,29,0.00
2012-2-26,43.4,32.9,25.6,21.0,15.3,10.0,80,50,33,30.43,30.05,12,3,18,0.00
2012-2-27,55.5,40.5,21.7,31.0,26.4,18.0,88,61,37,30.41,30.07,9,3,17,0.00
2012-2-28,49.5,40.9,34.3,26.0,20.7,18.0,61,46,31,30.38,30.17,9,3,21,0.00
2012-2-29,39.3,35.1,30.2,37.0,29.8,21.0,94,82,60,30.34,29.73,7,1,9,0.25
2012-3-1,42.0,37.1,34.9,39.0,35.4,33.0,95,93,87,29.93,29.64,8,1,9,0.20
2012-3-2,40.9,37.3,33.2,38.0,34.1,32.0,96,88,76,30.08,29.73,11,3,17,0.18
2012-3-3,56.7,45.0,39.8,46.0,34.2,15.0,97,73,20,29.75,29.45,17,4,27,0.05
2012-3-4,41.4,36.0,29.8,25.0,21.3,17.0,77,57,39,29.76,29.58,9,3,15,0.00
2012-3-5,43.8,32.8,25.4,20.0,13.2,3.0,69,47,27,30.40,29.76,11,4,17,0.00
2012-3-6,42.1,31.6,20.0,20.0,13.4,7.0,81,49,29,30.62,30.40,8,2,15,0.00
2012-3-7,62.3,45.9,29.9,42.0,29.9,21.0,83,57,28,30.55,30.29,12,3,17,0.00
2012-3-8,70.0,60.8,51.2,50.0,46.2,42.0,79,60,47,30.28,29.80,23,8,29,0.00
2012-3-9,62.0,41.0,32.1,51.0,24.7,15.0,87,54,33,30.29,29.81,12,4,28,0.14
2012-3-10,40.6,32.1,25.3,18.0,11.5,5.0,63,43,30,30.52,30.29,12,4,19,0.00
2012-3-11,59.5,43.4,27.0,30.0,21.7,12.0,60,44,28,30.53,30.32,14,4,20,0.00
2012-3-12,67.5,51.4,33.5,40.0,32.9,28.0,84,52,27,30.36,30.09,7,1,9,0.00
2012-3-13,73.6,62.0,51.9,54.0,49.6,39.0,86,65,47,30.09,29.88,14,3,23,0.00
2012-3-14,70.4,58.3,46.2,47.0,31.2,14.0,76,42,12,30.16,29.96,11,2,15,0.00
2012-3-15,55.3,46.7,39.2,42.0,36.8,26.0,90,69,52,30.28,30.15,11,2,14,0.00
2012-3-16,56.6,47.0,42.4,48.0,43.7,41.0,95,88,73,30.25,30.09,5,1,9,0.00
2012-3-17,68.9,54.3,37.4,51.0,45.5,36.0,96,75,49,30.32,30.17,9,2,13,0.00
2012-3-18,67.0,52.6,43.1,53.0,46.8,41.0,96,82,58,30.34,30.17,8,2,13,0.00
2012-3-19,75.8,61.7,49.6,58.0,51.5,47.0,94,72,46,30.19,30.10,9,2,12,0.00
2012-3-20,74.2,62.4,52.2,59.0,53.6,47.0,93,74,51,30.29,30.19,9,2,12,0.00
2012-3-21,65.0,59.9,55.7,59.0,56.4,54.0,96,88,78,30.32,30.24,6,1,8,0.00
2012-3-22,73.6,63.3,56.0,60.0,57.5,54.0,97,83,61,30.26,30.06,10,2,13,0.00
2012-3-23,78.4,63.0,50.4,58.0,51.7,40.0,97,70,46,30.09,29.99,9,2,14,0.01
2012-3-24,63.1,55.6,47.6,46.0,31.6,17.0,75,44,23,30.02,29.93,11,3,22,0.00
2012-3-25,61.6,49.8,43.4,45.0,41.0,35.0,85,73,54,29.93,29.70,6,1,9,0.01
2012-3-26,53.3,44.6,32.8,47.0,24.8,6.0,87,50,23,30.13,29.70,20,5,34,0.01
2012-3-27,51.4,37.2,27.1,16.0,3.1,-7.0,45,26,9,30.31,30.13,12,3,20,0.00
2012-3-28,66.3,50.1,35.7,50.0,31.8,14.0,76,50,37,30.12,29.53,14,4,24,0.05
2012-3-29,59.0,48.0,40.6,44.0,33.3,26.0,67,57,48,30.02,29.59,12,5,26,0.00
2012-3-30,55.9,44.5,33.8,38.0,25.1,22.0,88,49,28,30.08,29.88,9,3,14,0.14
2012-3-31,42.0,39.6,37.6,38.0,37.1,36.0,93,90,83,29.94,29.84,8,2,13,0.42
2012-4-1,48.6,43.3,38.4,44.0,39.8,37.0,95,88,74,29.89,29.61,9,2,12,0.24
2012-4-2,55.9,45.9,37.9,42.0,26.0,13.0,92,51,23,29.88,29.59,11,4,22,0.03
2012-4-3,64.0,49.0,33.9,23.0,16.4,5.0,60,32,10,29.96,29.77,11,2,19,0.00
2012-4-4,67.1,54.7,45.7,33.0,26.5,15.0,59,36,20,29.77,29.53,12,3,21,0.00
2012-4-5,56.1,45.9,37.1,29.0,24.8,22.0,61,45,30,29.94,29.74,9,3,18,0.00
2012-4-6,56.4,43.8,29.0,25.0,19.1,13.0,76,41,19,30.06,29.91,13,4,20,0.00
2012-4-7,59.5,46.9,32.5,21.0,15.0,10.0,54,30,15,30.11,29.97,13,3,25,0.00
2012-4-8,67.5,52.4,36.1,33.0,20.2,11.0,53,32,11,30.03,29.65,16,5,36,0.00
2012-4-9,62.3,52.5,42.4,30.0,22.5,17.0,54,33,17,29.76,29.61,19,6,32,0.00
2012-4-10,60.0,47.5,38.6,37.0,30.0,23.0,78,54,26,29.80,29.65,15,4,23,0.00
2012-4-11,48.6,42.7,35.5,36.0,31.1,26.0,82,65,45,29.93,29.79,8,2,14,0.00
2012-4-12,56.3,47.1,39.7,34.0,31.0,26.0,76,56,33,30.14,29.93,8,3,20,0.00
2012-4-13,64.5,49.5,32.8,32.0,26.9,22.0,78,46,22,30.22,30.10,11,2,13,0.00
2012-4-14,70.0,56.0,35.0,39.0,31.1,25.0,85,44,20,30.21,30.00,13,3,20,0.00
2012-4-15,74.9,63.3,54.4,58.0,53.0,41.0,92,71,47,30.01,29.93,11,3,16,0.04
2012-4-16,88.9,71.4,52.4,58.0,54.0,51.0,94,59,29,30.01,29.85,13,3,17,0.00
2012-4-17,76.1,67.6,60.2,57.0,40.0,27.0,76,40,17,30.14,29.87,9,3,15,0.00
2012-4-18,58.7,52.2,43.7,39.0,31.1,27.0,66,45,34,30.25,30.09,6,2,12,0.00
2012-4-19,71.1,58.2,47.3,46.0,43.0,38.0,86,60,36,30.09,29.95,7,2,13,0.00
2012-4-20,73.7,59.4,44.7,52.0,47.7,42.0,93,67,43,30.00,29.82,7,2,20,0.00
2012-4-21,76.5,63.5,49.6,58.0,54.2,46.0,91,74,47,29.81,29.59,9,3,18,0.30
2012-4-22,49.5,46.8,42.1,47.0,43.0,39.0,91,86,76,29.78,29.32,15,3,23,1.36
2012-4-23,47.6,42.9,38.5,45.0,39.9,35.0,95,89,76,29.38,29.15,10,4,18,0.30
2012-4-24,57.4,46.1,38.1,36.0,31.6,25.0,90,61,32,29.70,29.36,14,6,24,0.01
2012-4-25,62.7,47.0,32.4,37.0,32.4,27.0,94,62,29,29.89,29.70,11,3,18,0.00
2012-4-26,60.1,47.7,32.7,53.0,42.6,31.0,93,83,66,29.90,29.57,7,1,10,0.00
2012-4-27,54.6,46.1,37.4,51.0,30.2,24.0,88,56,37,30.14,29.61,19,5,23,0.00
2012-4-28,57.4,44.9,31.1,30.0,26.5,22.0,77,51,30,30.25,30.09,7,2,14,0.00
2012-4-29,63.4,49.5,31.3,31.0,20.5,11.0,87,39,14,30.25,30.08,10,3,27,0.00
2012-4-30,65.2,50.4,31.0,38.0,26.1,17.0,78,42,21,30.33,30.14,12,2,12,0.00
2012-5-1,73.0,58.0,48.3,58.0,50.3,35.0,94,77,51,30.14,29.95,6,2,11,0.13
2012-5-2,58.9,52.6,49.2,55.0,50.1,47.0,94,91,83,30.14,30.02,5,1,9,0.32
2012-5-3,60.7,54.5,48.7,57.0,52.2,47.0,96,92,85,30.16,30.03,6,1,9,0.31
2012-5-4,80.4,63.7,54.3,68.0,59.4,53.0,96,87,61,30.06,29.81,8,1,10,0.03
2012-5-5,73.4,63.8,58.4,63.0,59.6,56.0,97,87,68,30.01,29.83,8,1,11,0.00
2012-5-6,66.3,58.1,49.9,56.0,52.0,45.0,94,81,63,30.09,29.99,7,1,11,0.00
2012-5-7,61.7,55.8,50.1,56.0,48.5,43.0,94,77,61,30.11,30.03,5,1,9,0.05
2012-5-8,65.6,57.8,53.2,58.0,52.3,46.0,96,82,69,30.04,29.79,7,1,14,0.29
2012-5-9,73.3,63.8,56.0,63.0,56.8,50.0,97,80,52,29.79,29.57,7,1,12,0.07
2012-5-10,61.7,54.5,43.7,53.0,43.1,33.0,96,69,38,29.82,29.49,11,2,21,0.09
2012-5-11,69.7,55.2,39.3,41.0,34.9,28.0,91,53,22,30.11,29.83,13,2,21,0.00
2012-5-12,79.0,60.4,40.4,48.0,42.1,38.0,91,57,24,30.24,30.11,6,1,9,0.00
2012-5-13,81.4,67.2,53.1,54.0,49.2,45.0,83,55,28,30.16,30.04,7,2,15,0.00
2012-5-14,66.7,61.1,56.9,61.0,58.2,54.0,96,90,68,30.11,30.05,3,0,12,0.30
2012-5-15,70.8,63.6,60.7,65.0,61.6,59.0,97,93,81,30.07,29.88,10,2,15,1.32
2012-5-16,80.5,69.7,61.9,65.0,59.3,51.0,98,73,36,29.90,29.77,7,2,14,0.01
2012-5-17,72.1,59.8,48.1,57.0,40.2,34.0,84,52,26,30.12,29.90,7,2,15,0.00
2012-5-18,75.4,58.6,41.9,46.0,41.7,38.0,94,59,27,30.21,30.10,8,1,11,0.00
2012-5-19,82.1,63.3,42.6,52.0,45.1,41.0,94,59,23,30.16,30.06,10,1,12,0.00
2012-5-20,82.6,66.2,47.8,55.0,47.6,40.0,93,57,24,30.19,30.13,8,1,17,0.00
2012-5-21,65.2,60.9,55.6,62.0,55.6,38.0,96,84,37,30.16,29.95,3,1,8,0.37
2012-5-22,75.4,64.9,60.2,68.0,62.3,59.0,97,91,66,29.95,29.77,3,0,6,0.17
2012-5-23,79.1,67.4,63.3,68.0,64.6,63.0,98,91,61,29.99,29.82,4,0,8,0.87
2012-5-24,74.5,66.3,62.0,68.0,64.0,60.0,97,92,78,30.14,30.00,10,2,14,0.06
2012-5-25,77.5,67.8,61.4,69.0,64.9,60.0,98,91,73,30.15,30.07,6,1,10,0.07
2012-5-26,85.0,70.1,63.3,74.0,67.8,63.0,98,93,64,30.11,30.03,6,1,9,0.30
2012-5-27,80.5,71.4,64.6,73.0,67.8,64.0,99,89,67,30.13,29.94,6,1,7,0.18
2012-5-28,88.8,75.1,65.5,72.0,68.4,65.0,98,82,51,29.98,29.86,4,1,9,0.01
2012-5-29,89.1,77.0,66.2,75.0,69.9,65.0,96,81,53,29.85,29.65,10,1,26,0.18
2012-5-30,80.0,69.9,62.0,66.0,62.7,56.0,98,80,44,29.75,29.66,3,0,8,0.01
2012-5-31,78.2,67.4,55.9,61.0,53.5,48.0,96,65,36,29.91,29.69,9,2,15,0.00
2012-6-1,70.3,61.1,50.4,60.0,54.7,49.0,95,81,57,29.96,29.68,14,3,21,0.37
2012-6-2,69.7,62.8,51.2,63.0,54.6,47.0,97,77,49,29.76,29.62,7,2,15,0.63
2012-6-3,71.9,59.2,47.7,61.0,52.8,47.0,97,81,55,29.76,29.64,14,2,21,0.35
2012-6-4,63.2,56.5,51.5,57.0,52.8,48.0,97,88,68,29.79,29.58,6,1,10,0.15
2012-6-5,64.6,54.8,44.6,52.0,47.3,44.0,97,78,51,29.93,29.80,5,1,10,0.00
2012-6-6,72.6,59.2,45.2,55.0,50.4,44.0,97,76,45,29.99,29.90,6,1,9,0.01
2012-6-7,74.8,61.6,51.2,62.0,55.1,50.0,96,81,45,29.96,29.89,4,1,12,0.15
2012-6-8,81.6,65.1,50.1,60.0,54.6,49.0,97,73,33,29.95,29.81,7,1,13,0.00
2012-6-9,79.8,66.9,57.3,63.0,57.8,53.0,89,74,49,29.96,29.85,7,1,10,0.00
2012-6-10,87.4,72.8,61.5,69.0,63.4,59.0,95,74,48,30.12,29.96,6,1,9,0.00
2012-6-11,77.8,69.7,61.7,66.0,62.2,58.0,95,78,65,30.18,30.11,9,2,18,0.00
2012-6-12,69.3,65.7,64.0,66.0,62.9,58.0,97,91,78,30.11,29.84,14,2,16,0.83
2012-6-13,76.8,67.7,58.3,64.0,57.1,52.0,98,71,49,30.04,29.82,10,2,17,0.03
2012-6-14,78.6,66.5,53.6,62.0,57.1,52.0,95,74,47,30.21,30.04,7,1,13,0.00
2012-6-15,81.1,66.9,55.0,62.0,57.0,51.0,97,74,42,30.28,30.20,8,1,12,0.00
2012-6-16,79.2,66.5,52.2,58.0,54.0,51.0,96,67,42,30.32,30.16,5,1,8,0.00
2012-6-17,73.0,63.6,55.2,59.0,56.0,53.0,95,77,56,30.20,30.03,7,1,10,0.00
2012-6-18,69.1,62.1,54.6,58.0,55.2,52.0,93,79,64,30.11,30.05,5,1,10,0.00
2012-6-19,76.2,67.4,61.1,69.0,62.3,56.0,96,84,74,30.13,30.04,5,1,10,0.00
2012-6-20,94.8,79.0,64.5,77.0,70.4,64.0,98,78,46,30.07,29.91,4,1,9,0.00
2012-6-21,94.1,81.2,68.5,75.0,70.1,67.0,97,72,42,29.93,29.75,6,1,12,0.00
2012-6-22,89.2,75.9,69.4,75.0,71.1,66.0,97,86,58,29.79,29.69,6,0,16,0.12
2012-6-23,83.4,71.8,60.6,69.0,58.4,50.0,97,67,34,29.97,29.79,10,1,12,0.00
2012-6-24,82.2,69.4,55.1,67.0,59.2,53.0,97,73,40,30.00,29.86,5,1,7,0.00
2012-6-25,78.7,67.4,58.8,65.0,58.2,48.0,96,75,46,29.85,29.63,8,2,17,0.19
2012-6-26,72.8,61.9,51.2,52.0,48.4,45.0,84,63,40,29.78,29.69,11,2,18,0.00
2012-6-27,80.7,67.7,53.3,57.0,51.5,48.0,83,59,35,29.83,29.73,11,2,20,0.00
2012-6-28,88.9,72.1,57.9,68.0,59.6,53.0,87,67,38,29.83,29.69,6,1,12,0.00
2012-6-29,94.6,78.7,66.1,75.0,68.3,62.0,90,72,45,29.69,29.60,6,1,15,0.00
2012-6-30,91.5,77.5,65.5,71.0,65.6,59.0,94,70,34,29.76,29.64,6,1,14,0.00
2012-7-1,92.8,77.0,63.4,72.0,64.9,58.0,96,69,37,29.85,29.75,6,1,17,0.00
2012-7-2,85.0,72.4,58.7,63.0,59.1,55.0,95,67,37,29.91,29.83,8,1,13,0.00
2012-7-3,90.2,73.5,57.8,69.0,61.2,56.0,96,69,32,29.95,29.79,7,1,13,0.00
2012-7-4,91.6,78.9,68.1,73.0,68.7,63.0,96,73,48,29.82,29.68,7,1,12,0.03
2012-7-5,91.4,79.9,64.5,74.0,65.8,56.0,95,66,33,29.83,29.70,9,1,13,0.00
2012-7-6,92.6,74.1,56.1,68.0,60.3,53.0,96,68,28,29.91,29.81,4,1,6,0.00
2012-7-7,93.9,78.8,67.6,75.0,69.5,66.0,96,75,43,29.84,29.71,7,1,12,0.00
2012-7-8,89.7,78.3,70.4,71.0,65.7,59.0,97,69,37,29.85,29.77,4,1,9,0.04
2012-7-9,85.2,73.8,63.9,66.0,59.7,56.0,86,64,39,29.95,29.83,6,1,12,0.00
2012-7-10,87.5,72.7,57.3,65.0,57.8,52.0,95,65,32,30.05,29.95,5,1,9,0.03
2012-7-11,87.9,72.2,61.6,71.0,63.9,60.0,97,78,43,30.14,30.05,4,1,11,0.04
2012-7-12,88.6,75.2,60.2,65.0,61.0,56.0,96,65,39,30.17,30.08,6,1,16,0.00
2012-7-13,85.2,74.0,64.4,70.0,64.9,61.0,93,75,51,30.17,30.10,4,0,5,0.00
2012-7-14,81.9,73.1,65.8,69.0,65.6,61.0,97,79,56,30.19,30.09,6,1,10,0.08
2012-7-15,88.2,75.3,69.0,75.0,70.0,67.0,96,84,60,30.12,29.89,12,1,17,0.32
2012-7-16,88.2,75.8,65.9,74.0,69.1,65.0,98,81,51,29.92,29.76,5,1,7,0.00
2012-7-17,92.9,78.7,62.6,72.0,67.6,62.0,97,72,45,29.83,29.70,10,2,15,0.01
2012-7-18,95.6,82.7,75.0,77.0,72.4,70.0,85,72,51,29.80,29.70,8,1,12,0.00
2012-7-19,73.9,70.9,67.6,68.0,65.8,64.0,91,84,76,29.94,29.89,3,0,6,0.03
2012-7-20,66.9,63.5,61.1,65.0,62.2,60.0,97,95,91,30.03,29.88,5,1,13,0.37
2012-7-21,77.5,68.4,61.1,66.0,61.0,57.0,97,79,50,30.09,30.01,4,0,8,0.00
2012-7-22,82.2,70.8,58.8,67.0,63.5,58.0,97,79,58,30.14,30.05,5,1,10,0.00
2012-7-23,87.8,73.1,65.3,74.0,68.3,64.0,97,86,55,30.08,29.80,6,1,16,0.21
2012-7-24,91.5,78.5,65.9,75.0,66.9,58.0,98,71,38,29.80,29.56,11,2,18,0.01
2012-7-25,84.6,72.0,59.5,65.0,56.1,51.0,86,59,37,29.88,29.75,7,1,13,0.00
2012-7-26,89.2,71.6,61.8,77.0,66.6,59.0,97,85,62,29.77,29.59,18,1,31,0.60
2012-7-27,86.8,75.1,68.7,75.0,70.6,68.0,98,87,65,29.84,29.64,5,1,12,0.64
2012-7-28,86.2,71.9,67.5,76.0,69.4,67.0,98,92,69,29.93,29.82,8,1,15,0.87
2012-7-29,80.4,71.0,66.7,71.0,67.5,65.0,98,89,66,30.01,29.89,3,0,8,0.08
2012-7-30,83.7,72.5,64.8,71.0,66.8,64.0,98,83,57,30.08,30.00,5,1,10,0.00
2012-7-31,81.0,71.4,64.2,68.0,65.9,63.0,97,83,62,30.05,29.86,7,0,7,0.00
2012-8-1,80.9,70.5,64.8,72.0,67.2,63.0,97,89,69,29.89,29.80,6,1,12,0.08
2012-8-2,88.2,73.7,63.4,72.0,66.5,63.0,98,81,48,29.89,29.82,5,1,11,0.01
2012-8-3,89.3,75.3,63.5,76.0,69.7,63.0,98,84,59,30.05,29.89,4,1,8,0.00
2012-8-4,90.0,76.2,67.2,76.0,71.3,67.0,98,86,58,30.15,30.05,8,1,11,0.00
2012-8-5,89.9,77.1,70.6,77.0,72.6,69.0,97,87,60,30.13,29.91,11,2,17,0.27
2012-8-6,84.9,74.3,62.3,71.0,66.8,60.0,98,80,46,30.02,29.93,7,1,11,0.00
2012-8-7,83.8,69.5,57.1,67.0,61.9,56.0,97,79,51,30.00,29.91,5,1,9,0.00
2012-8-8,86.7,73.7,61.8,71.0,65.6,61.0,98,78,45,29.96,29.88,5,0,6,0.00
2012-8-9,87.6,73.8,65.0,73.0,68.2,64.0,97,84,58,29.92,29.81,6,1,14,0.00
2012-8-10,76.5,71.8,68.0,73.0,70.0,67.0,98,94,86,29.84,29.71,6,0,10,0.65
2012-8-11,85.2,75.9,69.2,74.0,70.4,67.0,98,84,61,29.87,29.75,9,1,13,0.04
2012-8-12,82.4,71.6,62.3,69.0,64.3,62.0,98,80,54,29.93,29.85,6,1,13,0.01
2012-8-13,83.8,69.8,60.3,65.0,61.3,59.0,96,77,44,30.00,29.91,6,1,9,0.00
2012-8-14,76.2,66.8,59.2,70.0,64.4,58.0,97,92,78,29.96,29.83,6,0,9,0.34
2012-8-15,82.2,71.3,65.1,71.0,67.6,65.0,98,89,59,29.86,29.79,7,1,9,0.08
2012-8-16,82.6,69.9,61.0,67.0,62.7,59.0,98,80,46,29.92,29.83,5,1,11,0.00
2012-8-17,85.7,70.0,58.8,71.0,64.7,58.0,98,85,52,29.88,29.73,7,1,13,0.16
2012-8-18,79.4,67.7,55.5,66.0,59.4,54.0,98,78,44,29.92,29.81,5,1,10,0.14
2012-8-19,73.0,61.4,51.1,62.0,56.3,50.0,97,85,56,29.97,29.89,3,0,6,0.01
2012-8-20,80.0,65.1,55.3,64.0,59.5,55.0,97,84,50,29.91,29.81,6,1,10,0.30
2012-8-21,79.9,67.2,59.5,66.0,60.5,57.0,98,82,48,30.06,29.91,4,0,7,0.00
2012-8-22,82.3,67.4,55.4,65.0,59.5,55.0,98,79,42,30.13,30.05,6,0,7,0.00
2012-8-23,85.6,69.8,58.6,66.0,61.4,58.0,98,78,41,30.14,30.06,4,1,8,0.01
2012-8-24,85.7,69.9,58.5,68.0,62.1,57.0,98,80,40,30.15,30.10,4,0,9,0.00
2012-8-25,82.2,71.0,62.2,70.0,64.1,61.0,97,80,54,30.23,30.15,6,1,10,0.00
2012-8-26,83.3,71.0,60.0,66.0,62.2,56.0,97,76,44,30.28,30.18,8,2,11,0.00
2012-8-27,85.0,73.6,65.9,72.0,69.1,65.0,96,86,62,30.18,29.91,10,1,12,0.01
2012-8-28,85.2,74.9,64.7,72.0,66.2,58.0,97,77,41,29.91,29.80,15,2,16,0.09
2012-8-29,79.1,66.1,56.1,61.0,56.6,51.0,96,75,40,30.00,29.89,6,1,9,0.00
2012-8-30,81.9,64.9,50.7,62.0,55.2,50.0,97,75,35,30.09,30.01,4,1,10,0.01
2012-8-31,89.3,71.9,55.5,66.0,60.7,55.0,97,71,37,30.05,29.89,7,1,14,0.00
2012-9-1,88.9,74.9,64.3,68.0,63.4,60.0,93,71,39,30.02,29.91,6,1,10,0.00
2012-9-2,79.0,70.1,61.4,71.0,66.5,60.0,97,89,70,30.05,29.97,3,0,8,0.00
2012-9-3,73.7,68.6,65.5,69.0,66.8,65.0,98,94,81,30.09,30.03,9,2,16,0.11
2012-9-4,80.1,71.4,67.4,74.0,70.2,67.0,99,96,82,30.05,29.77,8,1,17,1.00
2012-9-5,78.9,72.6,62.2,74.0,69.0,61.0,97,89,66,29.82,29.74,11,2,18,0.72
2012-9-6,80.5,68.3,59.6,71.0,64.9,59.0,99,90,68,29.89,29.81,5,0,7,0.01
2012-9-7,87.1,74.1,65.7,73.0,68.2,65.0,99,84,52,29.90,29.79,4,1,9,0.01
2012-9-8,85.3,71.0,62.1,73.0,67.6,62.0,98,89,61,29.81,29.53,11,2,29,0.54
2012-9-9,75.8,63.9,55.3,61.0,57.5,54.0,98,82,49,29.90,29.75,5,1,8,0.01
2012-9-10,69.8,59.5,49.4,55.0,49.3,43.0,96,72,43,30.13,29.90,8,1,19,0.00
2012-9-11,73.1,56.7,43.6,55.0,48.6,43.0,96,78,44,30.27,30.14,4,1,9,0.00
2012-9-12,78.4,61.3,46.6,59.0,52.9,46.0,97,78,43,30.35,30.27,4,1,7,0.01
2012-9-13,79.1,63.3,49.4,61.0,55.5,49.0,98,79,47,30.35,30.24,6,1,8,0.00
2012-9-14,79.3,64.0,51.0,62.0,56.7,50.0,98,80,47,30.25,30.06,8,1,8,0.01
2012-9-15,70.7,60.3,49.2,59.0,51.4,47.0,95,75,47,30.14,30.07,10,2,21,0.03
2012-9-16,72.2,56.2,45.1,55.0,48.5,44.0,97,78,40,30.12,30.02,6,1,10,0.01
2012-9-17,74.8,59.0,44.7,58.0,50.7,44.0,97,77,44,30.11,29.98,5,1,8,0.00
2012-9-18,73.6,67.3,63.1,70.0,65.3,58.0,97,93,80,29.98,29.53,14,2,27,2.64
2012-9-19,67.3,58.0,46.3,65.0,49.2,42.0,96,75,42,30.16,29.70,9,2,20,0.07
2012-9-20,70.3,56.2,41.5,57.0,49.1,41.0,97,80,48,30.19,30.07,8,1,10,0.01
2012-9-21,73.9,61.8,52.1,60.0,56.2,51.0,98,84,59,30.09,29.97,8,1,10,0.01
2012-9-22,78.9,65.8,55.5,67.0,61.1,54.0,97,86,63,29.98,29.73,5,1,22,0.06
2012-9-23,66.3,55.4,46.1,59.0,47.5,41.0,98,78,43,30.11,29.84,7,1,13,0.01
2012-9-24,64.5,51.6,43.3,48.0,43.7,39.0,97,78,40,30.17,30.08,9,1,13,0.00
2012-9-25,71.0,55.0,39.1,54.0,45.2,38.0,97,74,40,30.18,30.08,10,2,18,0.01
2012-9-26,71.5,63.2,57.3,63.0,59.0,54.0,96,86,72,30.10,29.99,7,1,14,0.00
2012-9-27,73.3,64.6,58.6,64.0,60.8,56.0,98,88,63,30.14,30.03,3,0,8,0.13
2012-9-28,66.8,59.0,55.1,63.0,57.4,54.0,98,94,87,30.11,29.92,9,1,10,0.48
2012-9-29,64.2,57.6,54.0,56.0,53.5,51.0,97,86,63,29.93,29.85,7,1,11,0.00
2012-9-30,66.1,54.3,46.0,53.0,49.6,45.0,98,85,57,29.87,29.75,6,1,13,0.01
2012-10-1,70.3,55.8,44.7,53.0,49.1,44.0,97,81,51,29.94,29.82,8,2,16,0.01
2012-10-2,61.3,58.3,54.8,61.0,57.1,53.0,98,96,92,30.00,29.92,4,0,8,1.94
2012-10-3,68.9,63.6,59.1,68.0,63.0,59.0,99,98,95,30.09,29.96,2,0,8,0.01
2012-10-4,71.4,65.5,57.7,69.0,64.9,57.0,99,98,92,30.11,30.02,3,0,6,0.28
2012-10-5,77.6,62.7,51.2,63.0,58.1,51.0,99,87,54,30.07,29.90,6,1,9,0.02
2012-10-6,68.7,57.6,47.1,62.0,54.3,46.0,98,89,71,30.00,29.77,14,1,19,0.01
2012-10-7,52.5,47.0,40.5,46.0,42.8,39.0,97,85,66,30.11,29.98,5,0,7,0.15
2012-10-8,51.2,45.4,37.3,45.0,41.7,37.0,98,88,71,30.27,30.10,3,0,6,0.01
2012-10-9,57.2,50.8,43.3,52.0,48.1,42.0,97,91,76,30.22,30.06,5,1,7,0.04
2012-10-10,63.2,55.4,47.1,57.0,50.6,43.0,98,85,60,30.06,29.79,6,1,19,0.06
2012-10-11,58.3,49.0,40.6,42.0,36.2,32.0,87,64,38,30.20,29.97,10,2,13,0.00
2012-10-12,55.3,43.5,36.9,43.0,32.6,25.0,94,68,45,30.43,30.07,9,1,16,0.00
2012-10-13,54.4,41.0,27.5,34.0,27.7,20.0,94,64,28,30.52,30.28,7,1,11,0.00
2012-10-14,67.3,57.1,45.8,54.0,47.8,36.0,83,72,58,30.26,29.91,8,2,14,0.00
2012-10-15,68.0,60.1,52.1,62.0,57.0,51.0,98,89,76,29.90,29.61,7,1,12,0.50
2012-10-16,58.1,49.7,37.7,50.0,39.9,35.0,97,71,45,29.91,29.68,13,3,23,0.01
2012-10-17,63.0,45.9,33.1,44.0,38.9,32.0,97,80,46,30.01,29.91,4,1,9,0.00
2012-10-18,67.5,53.6,38.1,57.0,47.4,37.0,97,81,50,30.00,29.86,9,2,17,0.00
2012-10-19,68.5,64.0,58.8,66.0,62.2,56.0,98,94,84,29.86,29.60,8,2,16,2.01
2012-10-20,63.3,54.9,43.8,59.0,48.7,41.0,98,81,50,29.84,29.62,7,2,17,0.01
2012-10-21,65.3,50.6,40.2,47.0,41.4,39.0,95,74,43,30.03,29.84,15,2,17,0.01
2012-10-22,68.9,53.4,41.8,45.0,42.3,39.0,90,69,37,30.12,30.01,7,1,16,0.00
2012-10-23,57.7,50.3,42.2,54.0,48.3,41.0,97,92,85,30.12,30.04,3,0,5,0.03
2012-10-24,67.9,57.1,52.0,59.0,54.3,51.0,98,90,73,30.16,30.05,5,1,8,0.04
2012-10-25,59.2,56.6,54.9,55.0,54.4,53.0,96,92,86,30.23,30.17,6,1,8,0.00
2012-10-26,62.6,58.3,55.5,58.0,56.1,55.0,97,92,81,30.21,30.08,3,0,5,0.01
2012-10-27,62.0,58.5,54.7,57.0,55.2,53.0,96,89,78,30.07,29.89,5,0,6,0.00
2012-10-28,55.9,54.6,53.1,53.0,49.2,44.0,94,82,70,29.89,29.65,9,2,18,0.04
2012-10-29,59.8,54.5,52.0,57.0,50.2,45.0,93,85,76,29.65,28.51,27,7,41,1.15
2012-11-4,41.0,40.8,40.6,32.0,32.0,32.0,72,71,70,29.99,29.99,5,4,10,0.00
2012-11-9,35.5,35.5,35.5,32.0,32.0,32.0,86,86,86,30.20,30.20,0,0,0,0.00
2012-11-10,51.8,41.8,32.8,40.0,35.5,30.0,92,79,61,30.39,30.20,4,1,6,0.00
2012-11-11,64.8,48.1,37.5,48.0,39.1,-99.9,95,77,54,30.47,30.37,4,-22,6,0.00
2012-11-12,66.6,55.5,44.0,57.0,49.8,40.0,93,82,63,30.43,30.12,8,2,16,0.00
2012-11-13,60.9,43.9,35.6,58.0,37.7,27.0,94,80,63,30.44,30.08,13,2,20,0.33
2012-11-14,46.8,37.6,29.0,28.0,24.9,22.0,83,62,39,30.53,30.44,9,1,14,0.33
2012-11-15,44.5,34.1,27.7,30.0,25.4,23.0,89,72,46,30.45,30.30,7,1,10,0.00
2012-11-16,49.7,36.7,27.9,30.0,26.6,22.0,93,70,43,30.45,30.30,4,0,8,0.00
2012-11-17,52.4,37.5,27.8,33.0,28.7,25.0,89,73,46,30.63,30.45,7,1,11,0.00
2012-11-18,47.8,35.4,26.8,36.0,29.5,25.0,94,80,53,30.67,30.56,4,1,8,0.00
2012-11-19,50.6,36.5,26.3,36.0,30.3,25.0,94,80,52,30.55,30.24,5,1,10,0.01
2012-11-20,50.1,37.1,27.4,34.0,28.7,26.0,95,75,46,30.24,30.10,2,0,6,0.01
2012-11-21,53.8,38.3,27.8,34.0,27.4,21.0,93,69,33,30.24,30.14,6,1,9,0.01
2012-11-22,56.4,38.2,25.2,35.0,29.4,23.0,92,73,43,30.29,30.14,5,1,7,0.01
2012-11-23,58.6,42.1,26.5,41.0,33.8,25.0,96,75,44,30.13,29.70,6,1,15,0.00
2012-11-24,45.9,37.3,33.9,33.0,23.4,18.0,73,58,48,29.86,29.70,17,6,22,0.00
2012-11-25,38.4,34.3,31.4,24.0,21.3,16.0,70,59,51,29.95,29.86,13,4,22,0.00
2012-11-26,47.8,36.2,27.8,27.0,23.2,22.0,82,61,36,30.25,29.95,8,2,16,0.00
2012-11-27,34.2,32.0,28.0,33.0,29.6,23.0,95,90,80,30.27,30.20,1,0,3,0.08
2012-11-28,37.3,31.4,26.8,31.0,26.7,23.0,96,84,59,30.29,30.19,9,1,14,0.15
2012-11-29,41.0,32.9,26.6,29.0,25.1,22.0,83,73,61,30.36,30.27,10,2,17,0.11
2012-11-30,41.1,32.8,25.2,31.0,26.9,22.0,92,79,64,30.43,30.31,5,1,13,0.11
2012-12-1,35.9,32.7,30.0,32.0,28.3,25.0,94,84,78,30.51,30.42,7,1,9,0.00
2012-12-2,44.1,38.7,33.2,43.0,37.7,32.0,97,96,94,30.41,30.12,2,0,5,0.05
2012-12-3,62.0,48.4,41.9,52.0,45.3,41.0,97,90,67,30.24,30.10,5,1,6,0.06
2012-12-4,64.1,52.8,43.7,56.0,49.8,42.0,97,89,76,30.24,29.94,6,1,7,0.07
2012-12-5,57.4,46.0,31.3,53.0,35.6,19.0,88,68,50,30.24,29.89,12,4,24,0.08
2012-12-6,41.2,31.3,26.1,22.0,20.2,18.0,84,64,43,30.35,30.23,6,1,12,0.00
2012-12-7,37.2,32.6,26.1,36.0,30.2,21.0,96,91,75,30.26,30.01,2,0,5,0.19
2012-12-8,45.7,42.2,37.4,45.0,41.3,36.0,97,96,96,30.00,29.87,5,1,10,0.01
2012-12-9,45.4,41.1,38.3,45.0,38.8,36.0,97,91,81,30.24,29.98,5,1,11,0.32
2012-12-10,49.9,44.4,38.9,49.0,43.8,38.0,98,97,96,29.97,29.53,4,0,13,0.04
2012-12-11,47.1,40.9,32.7,42.0,35.2,30.0,97,81,64,30.18,29.64,7,1,12,0.01
2012-12-12,41.6,32.6,27.3,31.0,27.5,26.0,95,82,57,30.44,30.18,7,1,8,0.01
2012-12-13,44.9,31.8,23.8,31.0,25.5,22.0,95,80,48,30.47,30.32,4,1,7,0.00
2012-12-14,46.2,32.8,23.4,31.0,26.0,22.0,94,78,53,30.32,30.16,9,2,13,0.01
2012-12-15,46.2,34.7,24.8,34.0,29.2,23.0,95,81,58,30.32,30.17,5,1,7,0.01
2012-12-16,45.0,42.3,40.0,42.0,39.2,34.0,95,88,78,30.18,29.87,9,2,11,0.14
2012-12-17,41.9,39.3,37.1,41.0,38.2,36.0,97,96,95,29.89,29.59,5,1,8,0.13
2012-12-18,50.1,43.0,39.5,48.0,40.8,34.0,98,92,80,29.65,29.45,11,3,19,0.03
2012-12-19,46.3,40.0,33.8,34.0,29.6,27.0,82,67,53,30.12,29.66,12,4,22,0.01
2012-12-20,43.0,36.2,29.4,41.0,29.4,24.0,93,76,62,30.20,29.70,20,2,22,0.26
2012-12-21,54.4,41.2,33.6,53.0,37.0,28.0,95,85,73,29.63,29.10,17,8,32,0.95
2012-12-22,37.6,34.9,32.6,31.0,24.7,21.0,92,68,52,29.84,29.32,19,7,27,0.01
2012-12-23,39.5,34.5,27.3,26.0,23.0,20.0,77,64,46,29.96,29.84,14,5,23,0.01
2012-12-24,37.9,31.1,26.1,29.0,23.6,21.0,93,75,55,30.09,29.90,4,0,9,0.00
2012-12-25,37.2,32.8,29.7,34.0,29.1,24.0,95,86,74,30.25,29.89,8,1,14,0.14
2012-12-26,32.6,27.6,24.5,31.0,24.0,20.0,95,86,73,30.28,29.51,10,2,21,0.14
2012-12-27,35.4,31.8,28.0,34.0,27.5,20.0,96,85,71,29.89,29.35,13,4,27,0.11
2012-12-28,35.8,29.6,23.4,25.0,22.2,20.0,88,74,64,30.09,29.88,12,3,17,0.06
2012-12-29,29.6,27.1,22.2,27.0,24.8,20.0,94,91,85,30.04,29.54,6,0,14,0.06
2012-12-30,35.7,29.6,23.2,26.0,17.7,13.0,86,62,49,30.20,29.65,17,5,27,0.03
2012-12-31,33.6,29.9,22.6,25.0,21.4,13.0,77,70,65,30.18,29.90,12,4,15,0.01
2013-1-1,36.7,32.9,23.9,30.0,24.4,14.0,81,71,58,30.02,29.85,10,3,14,0.03